Punta Gorda, FL

11:58 PM EDT on September 21, 2017 (GMT -0400)
Charlotte County

Weather History for KPGD - January, 2014

Change the Weather History Date:

Tuesday, January 7, 2014

  Actual Average Record
Temperature  
Mean Temperature 48 °F -  
Max Temperature 54 °F 71 °F 84 °F (1998)
Min Temperature 41 °F 48 °F 34 °F (2001)
Degree Days  
Heating Degree Days 18    
Moisture  
Dew Point 23 °F    
Average Humidity 41    
Maximum Humidity 62    
Minimum Humidity 23    
Precipitation  
Precipitation 0.01 in - - ()
Sea Level Pressure  
Sea Level Pressure 30.36 in    
Wind  
Wind Speed 14 mph (NNE)    
Max Wind Speed 20 mph    
Max Gust Speed 26 mph    
Visibility 10 miles    
Events Rain    
Averages and records for this station are not official NWS values.
T = Trace of Precipitation, MM = Missing Value Source: NWS Daily Summary

Daily Weather History Graph

Daily Weather History Graph

Search for Another Location

Airport or City:

Trip Planner

Search our weather history database for the weather conditions in past years. The results will help you decide how hot, cold, wet, or windy it might be!

Date:

Astronomy

Jan. 07, 2014 Rise Set
Actual Time 7:18 AM EST 5:50 PM EST
Civil Twilight 6:53 AM EST 6:15 PM EST
Nautical Twilight 6:24 AM EST 6:44 PM EST
Astronomical Twilight 5:55 AM EST 7:12 PM EST
Moon 11:46 AM EST (1/7) No Moon Set
Length of Visible Light 11h 22m
Length of Day
10h 32m
Waxing Crescent, 45% of the Moon is Illuminated
Jan 7
Waxing Crescent
Jan 7
First Quarter
Jan 15
Full
Jan 24
Last Quarter
Jan 30
New

Hourly Weather History & Observations

Time (EST) Temp. Windchill Dew Point Humidity Pressure Visibility Wind Dir Wind Speed Gust Speed Precip Events Conditions
12:53 AM 48.9 °F - 30.0 °F 48% 30.30 in 10.0 mi NNE 15.0 mph 20.7 mph N/A   Overcast
1:53 AM 48.0 °F - 30.0 °F 50% 30.29 in 10.0 mi North 15.0 mph 26.5 mph N/A   Overcast
2:53 AM 46.9 °F - 28.9 °F 50% 30.30 in 10.0 mi North 12.7 mph - N/A   Overcast
3:53 AM 46.0 °F 39.3 °F 23.0 °F 40% 30.33 in 10.0 mi North 16.1 mph 23.0 mph N/A   Scattered Clouds
4:53 AM 45.0 °F 38.5 °F 21.0 °F 39% 30.33 in 10.0 mi NNE 13.8 mph 20.7 mph N/A   Scattered Clouds
5:53 AM 44.1 °F 37.4 °F 21.0 °F 40% 30.33 in 10.0 mi NNE 13.8 mph - N/A   Partly Cloudy
6:53 AM 41.0 °F 32.5 °F 27.0 °F 57% 30.35 in 10.0 mi NNE 17.3 mph 23.0 mph 0.01 in Rain Light Rain
7:53 AM 42.1 °F 34.5 °F 26.1 °F 53% 30.39 in 10.0 mi North 15.0 mph - 0.00 in   Partly Cloudy
8:53 AM 42.1 °F 34.9 °F 21.9 °F 45% 30.41 in 10.0 mi NNE 13.8 mph - N/A   Scattered Clouds
9:53 AM 44.1 °F 37.1 °F 21.9 °F 42% 30.43 in 10.0 mi NNE 15.0 mph - N/A   Clear
10:53 AM 46.9 °F - 21.0 °F 36% 30.42 in 10.0 mi NNE 19.6 mph 23.0 mph N/A   Clear
11:53 AM 50.0 °F - 17.1 °F 27% 30.40 in 10.0 mi NE 16.1 mph - N/A   Clear
12:53 PM 52.0 °F - 18.0 °F 26% 30.36 in 10.0 mi NE 11.5 mph 20.7 mph N/A   Clear
1:53 PM 54.0 °F - 18.0 °F 24% 30.34 in 10.0 mi NE 13.8 mph 21.9 mph N/A   Clear
2:53 PM 54.0 °F - 17.1 °F 23% 30.34 in 10.0 mi NNE 11.5 mph 19.6 mph N/A   Clear
3:53 PM 54.0 °F - 19.0 °F 25% 30.35 in 10.0 mi NNE 11.5 mph 17.3 mph N/A   Clear
4:53 PM 53.1 °F - 19.9 °F 27% 30.35 in 10.0 mi NE 11.5 mph - N/A   Clear
5:53 PM 48.0 °F - 21.9 °F 36% 30.35 in 10.0 mi NE 9.2 mph - N/A   Clear
6:53 PM 45.0 °F 41.8 °F 21.9 °F 40% 30.37 in 10.0 mi NNE 5.8 mph - N/A   Clear
7:53 PM 44.1 °F 39.0 °F 23.0 °F 43% 30.38 in 10.0 mi NNE 9.2 mph - N/A   Clear
8:53 PM 43.0 °F 37.2 °F 24.1 °F 47% 30.40 in 10.0 mi NNE 10.4 mph - N/A   Clear
9:53 PM 44.1 °F 38.1 °F 26.1 °F 49% 30.41 in 10.0 mi NNE 11.5 mph - N/A   Mostly Cloudy
10:53 PM 44.1 °F 37.7 °F 27.0 °F 51% 30.40 in 10.0 mi NE 12.7 mph - N/A   Overcast
11:53 PM 43.0 °F 35.4 °F 30.9 °F 62% 30.38 in 10.0 mi NNE 16.1 mph - N/A   Overcast